Theta_e
313 315 314 313 314 315 316 316 314 313 314 314 314 314 314 313 313 314 313 314 313 314 315 315 315 315 315 316 317 314 316 329 335 336 338 340 341 340 341 341 341 341 340 340 341 341 340 339 338 339 338 337 336 334 334 333 332 331 331 332 333 333 331 329 328 327 329 330 328 329 329 329 328 328 328 327 327 325 323 323 322 318 317 318 320 322
312 314 314 313 314 316 318 320 319 316 315 315 314 314 314 313 313 314 314 315 314 314 315 315 314 314 314 316 316 313 320 334 336 336 339 340 341 341 341 341 340 341 340 340 341 340 340 339 339 339 337 335 336 334 332 331 330 330 331 332 332 332 331 330 330 329 330 330 329 329 329 329 328 328 327 325 325 323 319 318 317 315 316 317 319 321
313 313 313 313 314 316 318 319 320 319 318 316 315 314 315 314 314 315 318 318 316 316 317 315 313 314 315 316 317 314 318 332 336 336 339 340 341 341 340 340 340 341 340 340 339 338 339 339 339 339 337 336 335 332 329 329 330 330 331 332 332 331 331 331 331 330 330 330 330 330 329 329 329 328 328 326 325 324 319 315 314 315 316 317 317 319
313 313 312 312 313 315 317 318 319 319 319 318 317 316 315 315 314 316 320 319 317 317 317 316 314 315 315 314 317 314 314 330 338 336 339 340 341 341 340 340 342 340 338 338 338 338 339 339 339 339 337 336 334 330 329 330 330 330 330 331 331 330 330 330 330 330 330 330 331 330 329 329 329 329 329 328 326 327 324 318 316 317 317 317 317 317
313 312 312 312 314 315 316 316 318 319 318 320 320 317 314 314 315 317 320 320 320 322 321 317 312 315 321 318 317 317 318 331 338 337 339 341 340 341 339 339 340 338 336 336 337 338 339 339 339 338 337 336 334 331 331 331 329 329 329 330 330 328 328 329 329 329 329 330 331 330 330 330 330 329 329 329 328 328 326 320 318 320 321 322 320 318
312 312 312 313 314 314 314 316 317 319 319 319 322 320 317 317 319 319 319 319 319 322 324 318 310 317 331 327 318 321 324 330 337 338 338 340 340 340 338 337 337 335 335 335 336 338 338 338 338 337 336 336 335 334 333 332 329 328 328 329 329 326 325 327 328 329 328 328 329 329 329 329 329 329 329 329 325 323 322 318 320 323 323 324 322 321
311 312 312 315 315 313 314 314 314 319 319 319 325 326 319 318 320 320 319 317 317 320 324 323 318 321 330 330 324 324 323 326 333 337 337 339 340 338 337 336 336 334 335 335 335 337 337 337 338 337 336 336 336 335 334 332 329 328 328 327 326 324 324 326 328 327 324 325 326 327 327 326 326 328 327 323 318 317 317 317 323 325 324 325 324 323
312 313 313 315 316 314 314 313 315 319 317 321 331 327 319 318 319 320 318 315 318 322 324 329 329 323 324 329 329 324 320 325 331 333 336 339 338 337 336 334 335 335 335 335 335 336 336 336 336 335 336 336 335 335 333 332 330 328 328 325 323 324 324 325 327 325 321 322 324 326 325 324 325 326 321 317 318 320 318 317 321 323 323 324 322 320
316 315 314 315 315 315 314 314 316 318 317 325 332 323 318 318 318 319 317 315 319 320 322 331 329 320 326 337 332 323 321 326 332 336 337 339 337 335 335 334 335 335 335 335 334 335 336 336 335 333 334 335 334 334 333 331 330 328 328 326 324 324 323 324 326 322 319 321 322 324 324 325 328 324 317 317 321 322 321 320 319 320 322 323 320 319
316 314 313 314 314 315 316 315 316 318 319 324 324 319 318 317 317 317 314 315 318 317 320 332 328 317 327 343 335 324 322 326 333 338 337 337 336 334 334 334 335 335 335 334 333 334 334 334 333 332 333 334 333 333 332 331 329 327 327 327 324 323 322 324 324 319 318 322 323 324 325 327 328 321 316 319 322 322 322 321 319 320 322 322 321 322
313 313 314 313 314 316 318 317 315 317 319 319 319 316 314 316 317 318 319 318 317 319 326 334 329 317 323 337 334 325 323 329 335 338 336 336 334 333 334 334 335 335 335 335 334 333 330 330 331 333 333 334 334 332 331 331 329 326 327 328 325 323 323 325 322 320 323 326 327 327 328 328 324 316 315 319 321 322 321 319 319 321 322 322 322 322
314 312 314 315 315 315 317 318 315 316 317 315 317 315 315 322 323 322 323 316 314 325 334 333 326 318 320 329 331 328 327 332 336 337 336 335 333 332 333 333 334 335 336 336 333 330 329 329 329 332 333 333 333 332 331 330 329 326 327 328 325 323 325 325 323 325 329 329 327 329 329 324 317 313 314 315 316 318 317 317 321 323 322 323 323 322
318 316 315 315 316 315 316 318 316 316 316 313 316 315 315 320 321 324 327 320 319 327 331 329 322 318 324 327 326 328 328 330 335 336 335 333 332 332 332 332 334 335 335 333 329 327 327 327 328 332 333 332 332 331 330 329 327 326 328 328 324 324 325 324 325 328 330 328 328 329 326 318 314 315 314 312 312 312 313 318 323 323 321 322 323 323
317 318 316 314 316 316 316 318 316 318 318 313 315 316 317 320 319 322 326 322 321 322 323 327 319 317 329 330 325 327 329 331 334 334 333 332 331 332 332 332 333 332 331 328 326 326 326 327 330 332 331 330 331 331 329 328 328 328 330 328 324 323 323 323 326 328 327 328 328 325 319 316 316 317 314 310 309 309 312 318 322 321 320 320 322 323
317 318 320 317 315 316 316 317 316 320 320 317 316 316 319 326 324 322 324 323 321 322 324 323 316 319 332 334 328 328 329 331 333 333 333 332 331 331 330 330 330 328 327 327 327 326 325 328 331 331 330 330 330 330 329 328 329 329 329 327 324 322 322 322 325 327 327 326 322 318 319 320 321 318 313 309 308 308 312 318 320 320 319 318 317 319
313 318 324 318 314 315 316 315 315 316 318 318 318 316 316 324 327 324 326 329 326 325 324 320 320 324 330 331 329 329 330 331 332 332 331 331 331 331 330 329 329 328 328 328 327 326 326 328 330 330 330 330 330 330 329 328 327 327 326 325 324 323 324 325 327 328 325 321 318 320 323 325 324 320 312 309 308 309 314 319 321 321 319 316 311 311
312 319 323 316 315 316 314 316 315 313 321 323 317 316 317 320 324 322 323 326 325 322 323 326 327 326 327 329 328 329 332 332 332 331 331 331 331 331 330 329 328 328 328 328 326 326 327 329 329 329 328 330 330 330 330 327 325 325 324 324 324 325 325 325 327 326 321 319 321 324 326 325 324 318 310 309 310 312 318 322 322 322 320 317 312 308
315 317 321 316 315 317 313 314 316 313 320 323 316 317 318 316 321 327 327 326 322 321 327 330 328 326 330 331 328 329 333 332 332 331 330 331 330 330 330 329 328 328 328 328 327 327 328 328 329 329 329 330 331 331 330 328 325 323 323 322 323 325 325 324 324 322 319 322 326 326 325 325 323 316 310 310 312 315 320 322 322 322 321 319 315 309
317 315 324 322 316 319 317 315 321 319 315 316 316 318 319 320 324 326 326 325 323 322 323 325 327 328 330 330 327 330 333 333 332 330 330 330 329 329 330 329 329 328 328 328 328 329 329 329 330 330 330 331 332 332 332 330 327 324 323 323 323 324 324 322 322 319 319 325 327 325 325 325 321 315 311 311 312 317 320 320 321 322 321 319 316 310
318 314 324 328 319 319 323 322 322 321 319 318 319 318 322 330 332 325 322 326 329 327 322 323 328 330 330 329 328 329 330 331 331 330 330 329 328 329 330 329 329 328 328 329 329 329 330 330 330 331 331 331 332 333 333 332 330 327 325 324 324 324 323 322 322 320 322 327 327 325 326 325 319 313 311 311 313 318 320 318 320 322 320 319 316 309
319 315 322 331 323 317 325 325 317 317 320 320 320 320 320 324 324 322 322 324 328 331 329 326 325 327 329 327 326 328 328 328 330 330 329 329 328 329 329 329 329 328 328 329 329 329 329 329 330 330 330 331 331 332 332 332 331 329 328 326 325 324 323 322 321 320 325 328 327 327 326 323 317 311 311 315 317 319 319 317 320 321 320 319 315 308
320 321 326 331 323 318 324 323 315 316 318 318 320 322 321 322 322 321 323 323 327 333 332 330 328 326 326 325 324 327 326 325 327 329 328 329 328 328 328 328 328 328 328 329 329 329 329 328 329 329 330 331 331 331 331 331 331 330 329 328 326 324 323 324 323 323 327 328 327 327 324 319 317 313 315 321 321 319 317 316 320 321 319 319 314 306
322 323 323 324 321 319 318 317 316 317 317 319 320 319 323 328 328 328 330 328 327 327 326 331 334 328 324 324 324 324 324 324 325 327 328 328 327 327 327 327 327 327 327 328 328 328 328 329 329 329 329 330 330 330 330 330 330 329 329 329 328 326 325 326 326 327 327 327 326 326 323 319 319 317 318 322 321 317 314 315 319 319 317 316 312 305
323 321 320 326 332 329 321 316 317 317 317 321 322 321 323 324 323 329 334 332 326 324 325 330 333 328 323 324 324 323 324 324 324 326 327 327 326 326 326 327 327 327 327 326 326 326 326 328 328 328 328 328 329 329 329 330 329 329 329 328 327 326 326 327 326 326 326 326 326 326 324 320 319 319 320 321 320 316 313 315 317 315 313 314 311 305
324 326 325 330 333 330 324 319 318 318 319 321 322 322 322 323 326 327 328 330 327 323 326 329 329 326 324 324 324 324 324 324 323 325 325 325 325 324 325 326 325 326 326 325 325 326 326 326 327 327 327 328 328 328 328 328 328 327 327 326 326 325 326 327 326 324 324 325 325 326 324 321 319 321 322 321 320 317 315 317 317 314 312 313 311 306
328 328 326 329 331 327 325 325 324 323 322 321 322 323 322 325 329 326 326 334 329 321 325 329 327 326 324 323 324 324 324 324 323 323 323 324 323 323 324 324 324 325 326 325 325 326 326 326 326 327 327 327 327 327 327 326 325 325 325 325 325 324 324 326 326 325 325 325 324 324 323 320 321 322 322 321 319 316 316 317 317 315 313 312 310 308
327 327 323 327 330 328 328 326 322 323 326 323 322 323 324 324 326 328 333 335 327 324 328 326 325 327 326 324 325 323 323 324 323 322 323 323 323 323 323 323 323 324 324 324 324 324 325 325 325 325 325 325 325 325 326 325 324 324 323 324 325 324 324 324 324 325 325 325 324 324 323 322 321 321 321 322 320 317 317 317 317 316 313 312 311 311
329 327 323 323 324 321 323 321 317 318 322 321 321 323 325 327 329 332 331 325 322 327 329 324 324 328 326 324 324 322 322 323 322 322 322 321 321 321 320 320 320 321 322 323 322 322 323 323 323 323 323 324 324 324 325 325 324 324 323 323 324 324 323 322 323 324 323 322 323 324 324 322 320 319 320 321 321 320 319 319 318 315 312 313 313 313
328 324 319 322 324 318 317 319 317 317 317 318 322 324 325 327 330 329 325 320 322 327 328 324 324 325 324 325 323 321 322 321 319 318 317 317 317 316 316 315 315 317 320 321 321 320 321 321 322 322 322 323 324 324 324 324 324 323 322 322 322 323 323 321 321 321 321 321 322 322 323 321 319 320 321 321 321 321 320 320 318 314 311 314 316 315
324 322 318 321 323 318 316 319 317 316 317 318 319 320 320 322 324 323 321 319 319 321 321 320 320 318 317 318 317 317 316 315 313 312 311 311 311 311 311 310 310 312 314 316 316 317 318 319 321 321 322 323 323 323 323 323 323 322 323 323 323 323 324 322 322 322 322 322 322 322 323 322 320 320 321 321 321 321 320 320 319 316 313 315 317 317
320 320 318 321 324 320 318 320 317 315 318 317 316 316 318 320 320 321 321 320 320 318 316 316 318 315 313 311 311 311 311 310 308 307 307 307 307 308 307 307 307 308 309 309 311 312 314 316 318 320 321 322 322 323 323 323 323 322 322 323 323 323 323 322 322 323 323 323 323 323 324 323 322 321 321 320 321 321 320 320 320 318 316 317 319 319
323 321 318 322 324 320 318 319 317 316 319 320 317 315 316 319 321 321 321 321 321 318 315 317 318 315 312 311 308 308 308 307 306 305 305 305 305 306 305 305 305 306 306 306 307 309 311 312 313 315 317 319 321 322 322 322 322 322 321 321 321 321 321 321 321 322 323 323 324 324 324 324 323 322 320 320 322 322 321 321 321 320 318 318 319 319
328 326 322 322 324 320 318 318 318 320 323 321 317 313 313 318 321 322 321 319 318 318 318 319 316 311 311 310 307 305 306 305 305 304 304 304 304 304 304 304 304 304 304 305 306 307 308 308 309 310 312 314 316 318 319 321 320 319 319 319 320 320 320 320 320 321 322 322 323 323 323 323 323 323 322 322 323 323 323 322 322 321 319 318 318 318
324 325 324 323 323 321 318 317 319 322 322 318 314 311 311 316 320 320 318 316 315 316 315 314 310 307 307 306 304 303 303 303 303 303 303 303 303 303 303 303 304 304 304 305 305 306 306 307 307 307 308 310 311 313 316 318 315 313 314 315 315 316 316 317 317 318 319 320 321 321 321 322 321 321 321 321 321 321 322 322 322 321 320 319 319 318
321 323 323 321 322 320 318 319 321 320 317 315 313 310 309 313 315 314 313 311 310 311 310 309 308 306 305 303 302 302 302 302 303 303 303 304 304 304 305 305 305 305 305 306 306 306 306 306 307 307 307 307 308 309 312 312 311 310 310 311 311 311 312 312 312 313 313 315 316 316 318 319 319 319 319 319 319 319 319 319 320 320 318 318 318 318
322 323 321 320 320 319 319 321 320 316 314 315 314 309 308 311 313 313 314 311 308 309 308 308 306 305 304 303 302 302 303 303 303 303 303 304 304 305 305 306 306 307 307 307 308 307 307 306 307 307 307 307 308 308 309 310 310 310 310 310 310 311 311 311 311 311 311 311 312 312 314 315 316 317 317 317 317 317 317 317 317 316 316 317 318 318
321 322 321 319 318 318 319 318 316 315 314 315 314 309 308 309 311 313 314 311 308 307 306 305 305 304 304 303 303 303 304 304 304 303 303 304 304 305 305 305 306 307 307 308 308 308 308 307 306 306 307 308 308 308 308 309 310 311 311 311 311 311 311 312 312 311 311 311 311 311 312 312 313 314 314 314 315 316 317 318 318 318 318 319 319 320
315 318 320 320 317 317 318 315 315 317 315 313 312 310 307 307 308 310 313 312 308 306 304 303 303 303 303 304 304 305 306 307 305 304 303 302 303 303 303 303 303 304 304 304 305 306 306 306 306 306 306 308 308 307 308 308 309 310 311 311 311 311 311 312 311 311 311 311 311 311 311 311 312 312 312 313 314 314 315 316 317 317 318 318 318 317
311 314 319 321 319 318 319 317 316 317 314 311 312 310 307 307 308 310 315 315 309 305 304 303 303 303 304 304 305 306 307 307 305 303 303 302 302 302 301 301 301 301 302 302 302 303 303 305 305 306 307 307 306 305 306 307 309 309 310 310 310 310 310 310 310 310 310 310 310 310 310 310 310 311 311 312 312 313 313 314 314 314 315 315 314 314
314 315 318 320 318 316 317 315 314 313 312 310 311 309 307 306 308 312 317 316 309 305 305 304 303 304 304 305 306 306 307 306 304 303 302 301 301 301 301 301 301 301 301 301 301 301 301 303 305 307 307 306 304 303 304 305 307 308 308 307 308 309 309 308 308 308 308 309 310 310 310 309 309 309 310 310 310 311 311 312 312 312 313 313 313 313
315 315 315 316 316 314 314 313 312 311 311 308 307 307 306 307 310 314 316 313 308 305 305 304 304 305 306 306 306 305 305 304 303 302 301 300 300 300 300 301 301 301 301 301 301 300 300 301 303 305 305 303 302 303 303 304 306 306 304 303 304 304 304 303 303 304 305 305 306 307 307 307 308 307 307 307 307 308 308 309 310 310 311 311 311 312
314 314 314 314 314 313 313 312 311 311 308 305 305 306 307 310 314 314 310 308 307 306 306 306 306 307 307 306 305 304 303 303 303 302 301 301 300 300 299 300 301 301 301 301 301 301 300 299 299 300 300 300 300 300 301 302 303 303 302 302 302 301 300 300 300 300 300 300 300 301 301 301 302 302 302 302 302 302 303 304 305 306 306 307 307 307
311 313 314 312 311 312 312 311 312 312 307 304 306 308 308 310 312 309 306 306 306 305 305 305 306 306 306 304 303 303 304 303 303 302 301 301 301 300 300 299 300 301 301 301 301 300 300 299 298 298 298 298 298 298 298 299 299 299 299 300 300 300 299 299 299 299 299 298 298 299 299 299 299 299 299 299 299 299 299 299 299 300 301 301 302 302
310 313 314 311 309 311 312 310 308 307 304 302 305 307 306 306 307 305 304 304 304 304 304 304 303 304 305 303 302 302 302 302 302 301 301 301 301 300 300 300 299 299 300 300 300 300 300 299 299 299 299 299 299 299 298 298 299 299 299 299 299 299 299 299 299 299 298 298 298 298 298 298 299 299 299 299 299 299 299 299 298 298 299 299 300 301
308 309 310 308 306 307 308 306 304 303 302 302 303 303 303 304 305 305 304 303 303 303 303 302 302 302 302 302 301 301 301 301 301 301 300 300 299 299 299 299 298 298 299 299 300 300 300 299 299 299 299 299 299 299 298 299 299 298 298 298 298 298 298 298 298 298 298 298 298 298 298 298 298 298 298 298 298 298 299 299 299 299 298 299 299 300
306 306 306 306 305 304 305 304 302 302 302 302 303 302 303 304 304 304 304 303 302 303 302 302 302 301 301 302 301 301 300 300 300 300 299 299 299 299 299 299 299 299 299 299 300 299 299 299 299 299 299 299 299 299 298 298 298 297 297 297 297 297 297 297 297 297 297 297 297 297 297 297 297 297 297 297 297 297 298 298 298 299 299 299 299 299
306 306 306 307 306 306 305 303 302 302 302 302 303 303 303 303 303 303 303 303 302 302 302 302 302 302 302 302 301 301 301 300 300 300 300 300 300 300 299 299 299 299 299 299 299 299 299 299 299 298 298 298 299 299 298 298 297 297 297 297 297 297 297 297 297 297 297 297 297 297 297 297 297 297 297 296 296 296 297 297 297 298 298 298 299 299
306 306 307 308 308 307 306 303 301 302 302 302 303 303 303 304 304 303 303 303 303 303 303 303 303 303 303 302 301 301 301 300 300 301 301 301 300 300 300 300 299 299 299 299 299 299 299 299 298 298 298 298 299 298 298 297 296 296 297 297 296 296 297 298 298 297 297 297 297 297 297 297 296 296 296 296 296 296 296 296 296 296 297 297 298 298
305 306 306 306 305 305 304 302 301 302 301 301 302 302 302 303 303 303 303 303 303 303 302 302 302 302 302 301 301 300 300 300 300 301 301 300 300 300 300 300 299 299 299 299 299 299 298 298 298 298 298 298 298 298 297 297 297 297 297 297 296 296 297 298 298 298 298 297 297 297 297 296 296 296 295 295 295 295 295 295 295 295 295 296 296 296
306 306 306 305 306 306 305 302 303 304 303 301 301 301 301 301 301 301 301 301 302 302 302 301 301 301 301 300 300 300 300 300 300 300 300 300 300 300 300 300 299 299 299 299 299 298 298 297 297 297 298 297 297 297 297 297 297 297 297 297 296 296 296 297 297 297 296 296 296 295 295 295 295 295 295 295 295 295 295 295 295 294 294 295 295 295
305 305 306 307 307 307 306 303 303 304 303 301 301 301 301 300 300 300 300 300 300 300 300 301 301 301 300 300 300 300 300 300 300 300 300 300 300 299 299 299 299 299 299 299 299 298 298 298 298 297 297 297 297 297 298 297 297 297 297 297 296 296 296 296 296 296 296 295 295 295 295 294 294 294 294 294 294 294 294 295 295 295 295 295 295 295
Wind_Speed
7 4 5 7 6 5 6 7 8 5 4 6 5 5 5 5 6 7 8 7 3 4 7 10 10 12 15 12 13 13 9 19 22 20 20 23 27 28 29 30 31 32 32 29 27 26 28 28 30 32 28 25 25 24 22 23 25 28 28 27 26 25 25 26 27 26 24 22 21 19 18 17 15 13 12 10 7 5 5 7 7 7 6 6 6 5
6 7 7 8 7 8 9 8 7 6 7 7 6 7 7 5 8 10 8 7 3 4 8 10 10 14 15 12 14 11 10 13 22 24 22 25 26 28 31 30 31 33 32 30 26 25 28 29 30 32 27 23 24 25 23 23 27 28 27 28 27 26 27 27 26 26 25 24 23 21 19 17 14 12 10 8 6 4 4 5 6 7 6 5 5 5
2 6 10 11 9 8 9 8 7 7 7 7 5 5 6 5 7 10 7 6 3 4 8 9 10 14 15 13 14 10 8 13 30 36 32 32 29 28 32 33 35 35 33 30 24 25 29 30 30 30 26 22 20 24 26 26 29 29 28 29 29 28 28 27 26 25 25 25 24 21 18 17 14 12 9 7 5 4 3 4 5 7 6 6 6 5
3 8 11 11 8 7 8 8 6 6 5 5 5 3 6 6 4 6 5 5 4 4 7 8 8 10 9 8 11 7 6 15 32 40 38 38 36 35 37 39 42 38 32 29 25 28 30 30 30 29 26 23 23 26 29 30 31 30 30 31 30 30 28 27 25 25 26 26 24 20 18 16 14 12 10 8 7 6 4 2 5 7 6 6 5 5
9 13 7 6 7 8 8 9 6 5 4 5 7 7 8 7 6 7 7 6 7 6 4 4 5 6 5 5 9 5 5 13 23 30 29 28 30 33 34 35 36 34 32 31 29 30 31 29 29 27 25 26 26 28 29 30 32 31 31 32 32 31 29 27 26 27 28 27 25 22 20 18 17 15 13 12 11 9 7 5 6 7 6 5 4 4
12 16 6 6 8 9 8 9 7 6 4 6 7 10 10 8 7 8 7 5 6 7 3 5 5 5 5 3 7 4 5 10 14 19 20 21 25 28 29 28 28 29 31 31 31 31 31 29 29 27 27 27 26 27 27 29 30 31 32 34 33 33 31 28 28 28 29 28 26 25 23 23 22 20 17 14 13 12 10 8 8 7 5 4 3 2
8 11 7 8 9 9 9 9 8 8 5 6 6 9 10 7 5 7 6 3 1 4 4 4 6 3 5 2 5 2 6 10 10 10 14 23 27 27 28 27 27 29 31 30 29 29 29 29 29 28 27 27 26 27 28 28 30 31 33 34 33 34 33 30 29 29 28 27 27 26 24 23 22 20 17 14 13 12 10 10 10 8 6 5 3 2
7 9 7 8 9 8 7 8 8 9 7 6 6 7 6 3 5 6 5 3 2 5 5 3 4 3 2 4 4 2 8 10 10 9 10 18 24 25 27 29 31 34 34 33 29 27 28 29 27 27 27 26 27 29 29 30 31 31 32 32 32 34 34 31 30 29 28 28 27 25 23 21 19 17 15 14 13 11 9 11 12 10 8 6 4 3
5 8 9 9 8 5 7 10 11 9 7 7 7 7 5 5 7 5 5 5 3 2 6 6 3 3 2 5 3 3 8 8 10 12 12 16 23 27 29 33 35 37 37 35 32 29 29 29 28 28 29 28 28 28 30 32 33 31 30 32 33 35 34 31 30 29 27 27 26 24 22 20 18 15 14 14 13 11 9 10 10 10 10 8 7 8
5 9 11 8 7 6 10 13 11 10 7 7 6 4 3 3 5 4 4 3 2 1 5 6 2 3 3 6 4 4 4 6 6 8 12 17 24 30 35 39 39 39 38 35 33 31 30 28 27 28 31 32 30 29 30 33 34 32 31 33 34 34 34 32 30 29 27 26 25 23 23 22 20 18 17 16 14 12 11 10 11 12 12 10 10 10
9 15 14 6 7 9 10 10 10 13 10 4 3 2 2 2 1 2 3 2 2 2 7 7 2 4 1 5 2 1 1 8 9 8 10 16 23 31 38 42 41 41 39 35 33 33 30 26 25 28 32 34 33 31 31 33 34 33 33 34 35 34 34 34 32 30 28 27 26 25 24 23 22 20 19 17 15 14 13 12 12 12 11 10 10 10
8 11 9 6 12 9 7 5 4 6 5 4 2 2 1 4 4 3 3 3 4 4 7 6 4 6 2 4 4 5 3 10 16 14 14 14 20 29 35 38 41 41 39 36 35 32 29 27 26 30 35 35 35 34 34 34 34 34 34 35 36 36 36 35 34 32 30 29 27 26 25 23 21 20 18 16 15 14 14 14 14 12 9 9 10 10
5 6 5 6 10 6 6 4 3 4 2 3 1 3 3 2 2 2 3 0 3 4 6 5 4 4 3 4 4 9 7 8 16 18 21 20 23 29 32 36 39 40 40 37 34 31 28 28 30 34 37 37 37 37 36 35 34 34 34 35 37 38 38 36 35 32 30 29 27 26 26 23 20 18 15 14 13 14 14 14 14 13 10 11 11 10
4 6 5 3 4 4 7 4 2 3 0 3 3 4 4 2 1 1 3 1 1 4 6 4 2 1 2 3 6 10 5 10 19 19 22 25 28 31 33 37 39 40 41 37 33 30 28 29 33 36 37 38 38 38 37 35 34 34 34 36 38 38 37 35 33 31 29 28 27 27 25 22 19 16 14 13 13 14 14 13 13 12 10 12 13 12
2 5 4 3 3 3 6 6 6 4 3 3 4 5 5 4 4 2 3 2 2 3 4 3 1 1 1 2 7 6 8 13 23 26 25 25 26 29 32 35 39 40 41 37 33 30 28 31 36 36 36 38 39 39 37 35 35 35 35 36 38 38 37 34 32 31 29 27 28 27 25 21 18 15 13 13 13 13 13 12 12 10 9 9 12 13
4 5 7 5 5 6 6 6 7 6 0 4 2 5 2 5 5 2 2 5 4 1 2 1 1 1 2 1 6 7 12 12 18 24 27 27 27 27 27 30 34 37 39 37 32 30 30 33 36 37 36 37 39 38 36 35 35 36 37 37 38 38 36 34 33 31 29 29 29 26 23 21 18 15 13 13 13 13 13 12 10 8 8 7 7 10
2 5 7 4 3 6 8 6 5 6 3 2 1 3 4 4 7 3 1 0 3 2 2 0 2 2 2 4 8 8 12 10 11 15 18 24 28 26 24 26 29 32 36 36 32 31 33 35 36 36 36 37 37 36 34 34 35 36 37 37 37 37 35 34 33 31 30 31 28 25 22 21 18 15 13 13 14 14 13 11 9 7 6 4 5 8
3 5 7 4 4 6 7 4 1 5 6 3 1 4 2 2 4 3 1 3 4 2 4 1 4 1 2 1 5 4 11 8 6 9 12 15 19 19 20 24 27 28 30 31 31 32 33 34 35 35 36 34 33 33 33 34 35 35 35 35 36 36 34 33 32 30 31 30 26 25 23 20 17 14 12 13 14 14 13 11 10 8 5 3 3 7
3 3 8 4 3 5 1 4 4 5 1 4 3 2 3 2 0 1 2 1 2 2 2 4 2 0 2 2 4 2 9 9 7 8 10 10 12 15 17 19 20 22 24 27 29 30 31 33 33 32 31 26 24 26 28 30 32 33 33 33 34 34 33 32 31 30 30 28 25 26 24 19 16 14 12 13 15 14 13 12 11 8 6 4 3 6
1 2 6 6 2 2 4 5 2 5 6 2 2 2 2 3 3 2 2 3 3 3 1 2 2 1 1 2 5 4 5 9 10 9 8 8 11 14 15 15 16 17 19 21 21 19 19 22 24 24 22 18 16 19 22 24 26 27 28 29 29 29 30 31 31 30 28 26 26 25 22 18 17 15 14 14 15 15 14 13 12 9 7 6 3 5
2 2 4 6 5 2 1 1 3 4 4 4 4 3 2 1 2 2 1 2 4 4 3 2 1 3 3 3 3 1 2 2 9 10 7 8 10 11 13 14 14 13 12 12 11 10 9 11 13 15 14 12 13 15 17 19 20 20 22 23 22 23 25 27 29 29 27 25 25 24 20 17 16 16 15 14 15 15 14 14 12 10 9 7 4 6
1 1 3 3 3 2 3 3 5 10 7 4 3 0 1 2 4 3 1 2 2 4 4 5 3 4 4 3 3 5 5 5 3 8 8 10 12 11 10 11 10 10 10 11 12 14 15 12 9 8 8 8 8 10 14 17 17 17 17 16 16 18 20 24 26 26 26 25 24 22 19 17 16 16 16 15 15 15 14 15 13 11 10 7 5 7
1 3 2 2 3 3 4 4 9 11 9 7 4 2 1 2 3 4 3 3 1 3 2 3 3 3 4 3 4 8 8 8 6 3 10 13 15 15 13 11 9 8 9 10 12 13 14 12 9 6 4 4 6 8 10 14 15 14 13 13 14 16 18 21 21 20 22 24 25 22 20 19 19 18 17 16 15 14 15 15 14 12 10 7 6 8
1 3 2 2 3 3 1 3 7 8 8 6 4 4 3 2 1 4 5 3 3 3 1 3 2 2 4 3 5 9 11 9 9 2 11 15 16 18 17 14 12 10 9 7 6 6 8 8 8 6 3 2 4 6 8 12 13 11 9 7 11 16 18 17 16 16 18 19 21 22 21 20 20 19 17 15 13 13 14 14 13 12 9 7 7 9
1 0 1 2 3 4 3 1 4 6 6 4 2 4 5 5 3 1 1 3 2 3 4 5 2 2 2 1 5 7 10 9 7 5 11 16 17 20 19 17 16 15 13 9 7 7 7 7 6 5 3 3 4 6 7 7 8 10 7 2 3 12 15 14 13 15 18 18 18 20 19 17 17 17 16 13 11 11 12 13 12 10 9 7 7 10
1 2 2 4 3 2 2 3 2 2 4 3 2 5 7 7 7 2 2 4 1 2 3 5 3 2 2 4 7 6 8 10 6 7 12 16 18 19 19 19 18 17 16 13 13 13 11 8 6 5 4 3 3 4 5 3 2 5 4 2 1 6 10 12 12 14 17 18 18 19 19 18 18 17 16 14 12 11 11 12 10 8 8 8 8 10
3 1 2 3 5 4 4 6 4 3 5 4 3 7 7 6 6 5 3 3 2 1 4 2 6 8 5 5 8 6 7 9 5 5 11 15 17 19 20 22 22 20 18 16 16 16 14 13 10 8 8 7 8 7 6 5 4 4 3 2 4 6 7 10 12 12 14 14 14 16 19 21 20 18 16 14 13 12 12 12 10 8 8 9 9 11
4 3 3 2 1 3 4 5 3 4 6 6 5 6 7 6 8 8 3 1 3 5 3 2 8 11 7 6 8 6 7 7 5 6 10 14 18 20 21 23 24 24 22 20 19 17 17 17 16 14 13 12 13 13 11 9 7 6 5 4 5 5 6 7 8 9 10 11 13 14 16 19 20 18 18 16 14 14 14 13 11 10 11 11 11 12
4 2 4 3 5 8 5 1 5 7 7 6 6 6 6 8 9 8 3 2 2 4 4 7 9 8 5 7 8 6 6 7 7 11 16 18 20 22 23 24 25 26 25 23 21 19 19 20 18 16 15 15 14 14 13 12 11 9 7 5 5 5 6 6 6 6 6 8 11 13 13 16 20 21 19 17 16 16 15 14 12 11 13 13 12 14
3 2 3 2 4 9 11 8 3 8 10 8 8 6 5 8 10 9 7 7 9 8 6 10 10 7 3 3 5 7 9 13 16 19 22 22 22 24 25 25 25 26 27 26 25 23 22 22 20 18 17 16 15 14 15 15 14 13 11 9 7 7 6 6 5 5 5 7 10 13 13 15 19 21 20 17 17 17 15 14 12 12 13 13 13 14
3 2 2 3 4 6 10 10 5 9 14 11 10 10 8 6 7 7 7 8 10 9 8 9 8 5 4 5 7 10 14 18 20 21 21 20 22 27 28 27 28 28 28 29 30 29 27 26 23 21 20 19 18 18 18 18 17 16 16 15 13 12 11 9 8 7 7 9 12 14 14 14 17 19 19 17 16 16 15 14 13 12 13 14 14 14
3 1 2 4 4 3 5 7 5 6 12 10 11 12 11 5 4 3 2 4 7 9 8 6 5 2 2 4 8 12 15 18 19 18 19 19 21 26 27 26 27 28 28 30 32 32 32 31 28 26 24 21 20 20 19 19 21 20 19 19 19 18 17 16 14 13 12 11 12 13 14 16 17 17 17 17 16 16 16 15 14 14 14 15 14 13
2 3 1 3 3 1 4 6 5 2 6 6 7 9 9 3 3 4 3 4 5 8 8 5 3 2 2 4 8 11 12 14 16 16 17 18 20 24 26 25 26 26 27 30 32 34 34 35 35 33 30 26 24 23 20 20 22 23 21 21 20 19 19 20 19 18 16 14 12 12 12 13 13 13 14 16 16 16 16 16 16 16 17 17 16 15
3 5 3 2 3 1 4 6 3 4 4 2 3 6 5 2 4 7 6 5 4 4 5 6 6 7 7 6 8 9 11 15 19 19 19 21 24 26 26 26 26 26 27 29 31 33 33 34 35 35 35 33 31 29 25 24 26 27 26 25 24 23 23 23 22 21 20 18 17 15 13 12 12 10 9 10 10 11 12 14 16 18 19 18 18 17
4 4 3 2 3 2 2 4 4 2 0 0 2 6 6 5 7 11 10 7 6 8 10 11 10 10 10 10 13 17 21 24 26 25 24 26 27 28 28 27 26 25 25 26 28 29 29 30 32 33 33 33 33 32 31 30 29 29 28 28 27 27 26 26 25 25 24 22 20 18 16 15 14 13 12 11 10 9 9 10 12 15 16 16 16 18
5 3 3 2 1 2 2 3 3 1 2 2 4 6 6 6 6 9 9 7 5 6 10 11 11 11 14 16 18 21 26 29 27 23 22 23 23 23 24 23 22 22 22 23 25 26 26 27 28 28 27 27 28 30 31 29 28 27 26 26 25 25 24 24 25 25 23 22 21 19 18 15 13 11 11 10 9 9 9 8 8 8 9 8 9 12
4 4 3 2 1 2 3 2 2 1 2 3 4 4 3 2 2 1 4 3 5 3 7 11 11 11 14 17 19 21 25 26 20 15 17 21 20 20 21 21 19 18 17 18 19 20 20 21 20 20 20 21 22 22 22 22 22 23 23 22 21 20 19 20 21 20 19 18 17 16 15 14 12 11 10 8 6 5 5 5 6 6 6 7 8 10
4 3 3 3 1 2 4 3 2 1 1 1 2 3 3 5 7 3 3 2 2 4 10 13 12 12 14 17 20 19 17 15 8 4 11 18 20 21 22 22 21 18 16 17 17 16 15 15 14 14 13 14 15 14 14 14 15 17 18 17 16 14 14 14 14 14 13 13 12 10 9 10 10 9 9 8 7 6 5 6 7 8 9 10 11 11
8 5 3 4 2 2 4 3 1 2 2 3 5 5 6 9 9 2 4 1 1 8 14 15 15 15 17 19 19 13 7 6 2 4 10 16 18 20 21 20 20 19 17 16 16 15 14 12 11 11 9 9 11 11 9 8 8 10 11 10 9 7 7 7 7 6 6 6 6 5 4 5 5 6 6 6 6 7 7 8 9 10 11 12 12 12
8 5 4 4 3 3 3 2 1 1 1 3 5 7 10 11 5 3 2 2 6 13 16 17 19 20 20 18 13 5 2 5 8 10 15 18 17 17 17 16 16 16 15 13 12 11 12 10 9 8 8 8 9 8 6 5 3 4 5 5 3 1 2 2 1 1 2 3 4 5 6 6 7 7 8 9 9 10 10 11 12 13 13 13 14 15
4 3 3 3 3 3 3 3 1 0 2 3 6 10 12 8 1 3 4 4 10 16 16 17 22 21 16 12 9 6 9 16 20 20 21 19 17 17 16 14 14 13 12 10 8 7 8 9 8 7 7 7 6 5 3 3 2 2 3 3 2 2 3 4 4 5 7 8 9 10 11 11 12 12 13 14 15 16 16 16 17 18 18 18 18 19
2 3 3 2 2 2 2 2 1 0 2 8 12 11 7 3 3 3 1 6 14 18 16 15 17 15 11 15 20 21 23 25 25 22 20 18 18 17 15 14 14 13 11 9 6 4 5 6 6 6 6 5 4 2 1 2 3 2 2 3 3 3 4 6 7 8 9 9 10 10 11 12 13 14 15 16 18 19 20 20 21 22 23 24 24 24
2 2 2 1 2 2 2 3 2 2 6 14 13 7 5 2 4 6 10 12 15 18 17 15 15 16 19 25 28 27 26 25 23 21 21 20 17 15 14 14 13 12 10 8 6 4 4 4 4 5 4 4 2 1 1 2 3 3 3 4 4 5 7 8 9 10 10 11 11 11 11 11 12 13 14 15 16 17 18 19 21 21 22 23 24 25
2 1 1 1 1 2 2 2 1 2 6 13 8 4 4 4 11 17 18 17 17 20 21 20 20 23 28 31 29 28 28 27 25 23 21 18 14 12 11 11 11 10 9 8 7 5 3 4 5 5 4 4 3 2 2 3 3 2 2 3 4 7 9 10 11 12 12 12 13 13 12 12 12 13 14 14 14 15 16 17 18 19 19 20 21 22
2 4 6 3 2 3 4 3 2 2 8 16 17 14 13 16 20 23 24 22 21 22 24 25 24 25 28 30 29 28 27 25 23 21 18 15 12 10 8 8 8 8 8 7 7 5 4 5 6 6 5 5 4 3 3 4 4 4 5 6 8 9 10 11 12 12 12 13 13 12 12 12 12 12 12 13 13 14 14 15 16 16 17 18 19 20
3 8 9 6 4 6 8 6 6 8 14 19 20 19 20 22 23 25 27 26 24 24 26 27 25 24 25 26 25 23 20 18 17 15 13 12 11 9 8 9 10 10 9 8 8 6 6 6 7 7 8 8 7 7 7 7 7 8 9 11 11 12 12 12 11 11 12 12 12 11 11 11 11 11 11 12 12 12 13 14 15 16 16 17 17 18
1 5 6 4 3 3 4 3 5 9 14 18 20 20 21 22 23 25 26 26 25 26 25 24 22 21 19 19 20 19 16 14 14 13 12 11 11 9 9 10 10 10 8 6 6 5 4 5 6 7 9 9 8 9 9 10 11 13 15 16 17 16 15 13 12 11 11 11 9 9 9 10 10 11 11 11 12 12 12 13 15 16 17 18 18 18
2 5 6 3 3 3 4 5 8 13 15 16 17 18 19 20 20 21 22 22 21 21 19 17 16 15 14 14 15 16 14 12 11 12 11 10 9 8 7 6 6 6 5 4 3 3 4 4 4 6 7 8 8 9 9 11 14 16 18 19 19 18 15 13 12 10 8 8 7 8 9 11 12 12 13 13 13 12 12 12 13 14 15 16 18 19
2 4 3 3 5 5 5 8 11 11 10 11 16 19 19 19 18 17 16 15 15 16 15 14 12 12 12 13 12 12 13 12 10 10 10 9 8 7 4 3 3 3 3 2 2 4 4 2 3 5 6 6 7 8 9 11 14 17 19 20 19 16 13 11 10 8 7 7 8 9 10 11 13 14 14 15 14 13 12 11 12 13 13 13 14 16
4 3 2 5 5 2 3 8 9 6 4 8 15 18 17 18 18 17 16 15 15 16 16 15 14 13 12 12 11 12 14 14 12 12 12 11 9 6 4 5 6 4 1 0 1 3 4 4 4 5 5 5 7 8 8 10 13 15 18 20 19 17 14 11 9 9 8 9 10 11 13 13 14 14 14 15 15 14 13 11 11 12 12 12 12 13
4 3 3 5 4 4 9 14 11 9 9 12 15 17 16 16 16 17 17 17 16 15 15 15 15 14 13 11 10 11 13 14 13 12 12 11 8 6 5 7 9 7 4 2 2 2 4 4 4 4 5 6 7 7 7 8 10 13 17 19 19 17 16 15 13 11 11 13 13 14 15 15 14 14 14 15 16 17 17 15 13 11 11 12 13 13
Wind_Direction
188 203 242 227 224 222 230 230 222 232 236 249 279 267 257 266 268 267 267 268 207 198 252 236 227 234 234 235 238 233 159 139 147 152 159 159 160 162 160 160 162 167 171 166 168 173 167 164 167 167 167 172 172 167 173 180 179 184 185 183 182 175 170 171 171 174 177 176 175 175 170 170 171 168 169 170 164 164 173 176 182 183 174 168 169 164
180 204 239 227 217 218 224 230 224 230 243 247 259 269 274 266 267 270 267 271 216 178 255 238 219 239 231 227 239 210 136 137 151 155 167 166 162 163 159 158 163 168 170 169 172 168 161 163 166 167 169 175 175 169 175 185 185 188 189 184 182 176 175 176 176 176 176 175 174 172 171 172 171 169 171 171 166 169 169 170 181 178 163 159 161 155
216 231 242 229 214 214 230 233 218 224 237 243 247 263 273 264 272 277 268 262 202 167 266 243 207 236 231 221 237 210 152 161 163 164 171 166 161 161 158 158 163 167 169 172 169 160 161 167 169 171 173 177 178 170 170 180 186 191 190 185 182 179 177 178 179 177 174 170 167 168 171 171 169 166 168 173 175 179 167 143 147 150 151 159 158 149
238 249 235 224 211 203 237 245 226 235 244 238 239 250 261 256 267 284 285 287 272 227 245 230 204 233 237 229 249 233 164 168 170 170 171 167 163 163 163 164 165 163 163 167 162 158 163 170 173 175 176 174 170 164 166 175 183 188 189 186 182 180 179 178 177 174 169 164 161 165 168 169 170 168 173 182 186 198 214 181 145 146 155 163 158 151
235 251 223 187 206 204 229 249 233 231 253 245 228 227 245 249 240 253 278 307 318 298 242 167 179 242 258 228 251 268 130 159 171 168 166 164 161 161 162 162 160 158 159 161 160 163 167 171 174 175 174 173 169 167 170 175 180 186 188 186 182 180 180 180 177 171 166 163 162 165 167 169 172 173 180 186 185 194 212 205 171 157 156 160 161 151
243 253 217 170 213 210 217 244 228 194 230 260 235 221 222 223 231 250 285 331 354 323 307 110 145 250 300 223 236 285 98 144 167 161 154 152 154 155 152 153 154 153 157 161 164 167 169 171 173 173 173 174 175 175 174 174 178 182 184 183 182 182 183 182 178 172 169 167 167 170 172 174 175 175 184 194 192 189 191 187 171 160 158 161 164 146
244 248 204 189 215 212 214 241 230 181 196 255 236 210 195 188 236 273 302 340 23 281 282 101 137 218 318 305 225 247 103 135 157 154 147 150 153 151 146 147 149 151 155 159 163 165 167 171 170 171 175 178 178 176 173 173 176 180 181 182 183 184 185 184 179 175 174 173 172 174 177 179 178 179 184 190 185 174 169 169 168 171 171 174 199 227
232 237 218 203 212 212 213 240 227 177 176 243 235 205 191 201 258 274 291 281 232 264 300 9 103 121 311 274 226 153 99 122 146 146 142 146 147 143 141 143 146 153 158 159 161 164 169 172 168 169 179 183 180 176 174 173 175 180 184 183 183 184 185 182 178 178 177 175 175 177 180 181 181 182 179 171 166 161 160 164 169 179 180 183 200 194
220 219 225 208 206 210 210 230 221 177 185 237 224 205 211 233 244 254 272 273 281 304 307 317 42 85 276 273 298 52 88 116 145 148 145 144 143 139 138 142 149 156 161 165 169 172 177 177 171 169 177 183 183 179 176 174 174 179 185 186 184 185 186 181 180 183 180 178 179 179 182 181 182 187 177 164 164 165 162 166 173 179 177 170 149 128
251 238 241 209 194 209 217 230 210 174 204 232 204 196 214 229 240 255 249 254 347 319 263 280 359 80 274 287 330 17 87 130 141 140 145 143 140 138 139 145 152 157 162 170 175 178 183 182 175 170 172 180 186 184 179 176 175 176 183 187 186 186 186 182 186 188 183 182 184 183 185 186 185 186 177 167 169 172 171 176 175 171 171 163 142 129
265 266 264 228 209 209 203 219 193 181 203 199 149 181 274 298 326 300 259 141 98 253 253 251 200 120 281 293 285 300 141 141 131 129 143 139 135 138 143 149 155 158 164 173 178 181 185 182 177 173 174 180 185 185 183 179 177 177 181 187 188 186 185 185 189 188 183 185 187 187 190 192 188 183 178 171 171 176 180 182 174 167 169 165 154 152
279 271 268 231 226 209 176 212 204 188 190 143 125 124 269 314 14 13 331 75 127 243 260 237 167 117 149 272 273 293 268 152 144 148 152 143 139 143 147 152 157 161 167 174 179 184 185 182 183 179 178 181 184 186 187 183 181 180 180 183 187 187 186 188 189 185 184 188 190 192 195 196 189 181 176 174 175 181 185 182 174 170 177 177 169 170
292 259 259 239 228 184 143 229 294 360 40 131 149 91 106 290 357 359 301 212 179 238 256 230 143 112 211 246 308 321 305 166 153 156 153 147 147 148 150 153 158 162 168 174 179 184 186 185 186 184 181 183 185 187 188 185 183 183 182 182 185 188 188 189 188 186 187 191 194 197 198 195 186 178 174 175 179 184 186 182 177 180 189 192 187 181
293 287 290 275 246 161 134 168 260 326 14 158 182 139 141 177 124 281 270 282 239 238 265 265 158 185 265 305 329 333 340 140 139 137 139 144 148 150 151 154 158 163 168 174 178 178 182 188 188 187 185 185 186 188 188 186 185 186 185 183 185 189 189 188 188 188 190 194 197 199 197 190 180 175 175 179 184 186 187 185 184 187 189 193 198 196
226 294 278 217 242 186 151 175 185 178 175 201 192 146 151 162 151 214 225 198 231 245 292 308 144 173 163 291 309 354 56 111 125 124 130 140 145 145 150 156 162 168 173 177 178 176 180 187 189 190 190 188 189 189 187 187 188 189 188 185 186 189 189 188 189 190 194 196 195 195 194 187 180 178 176 180 187 189 189 185 180 178 173 179 195 201
179 247 251 232 221 189 188 206 169 127 156 249 167 110 169 190 157 158 177 173 177 157 336 351 106 321 144 279 327 55 78 86 108 120 130 140 145 147 154 162 167 175 178 177 178 181 183 187 190 194 194 193 193 190 186 188 191 191 189 188 188 189 189 188 189 192 194 193 191 192 190 185 183 179 175 178 185 188 186 178 172 169 164 157 163 182
179 250 277 295 268 213 203 209 166 145 172 261 108 154 215 179 132 126 238 62 89 121 279 24 106 335 45 14 347 53 87 82 96 116 131 144 153 157 163 170 174 181 182 179 179 184 185 186 192 196 197 197 196 192 187 189 192 191 190 190 189 190 190 190 191 191 192 191 190 190 188 186 184 179 177 181 181 181 178 174 178 176 164 142 129 155
199 252 286 291 293 264 214 197 217 176 152 127 207 211 205 69 89 112 153 14 51 145 264 9 117 183 78 42 311 46 94 95 106 124 134 149 157 160 165 174 179 184 183 181 183 185 186 189 193 197 199 200 199 196 191 191 193 192 192 191 190 191 192 192 192 192 191 191 190 187 186 186 184 179 180 183 178 175 174 177 184 182 171 158 142 156
188 236 287 276 267 291 311 69 2 310 231 155 197 189 118 97 280 91 119 132 105 154 281 352 51 92 100 155 248 184 125 127 126 130 141 155 160 160 166 174 179 182 183 183 185 187 190 193 196 199 201 201 201 200 198 197 197 195 193 193 193 194 195 196 195 195 195 193 189 187 187 186 183 180 181 183 182 180 179 181 183 183 190 199 174 162
140 179 281 292 273 314 16 50 48 317 321 358 22 3 92 137 163 174 151 154 148 149 227 336 22 314 249 212 239 230 149 138 142 145 153 160 163 162 162 167 174 179 183 183 182 184 191 196 199 201 202 203 203 202 202 202 201 199 198 198 198 197 199 200 200 199 196 193 189 187 185 184 182 182 183 185 186 184 182 183 185 188 201 211 194 165
30 145 241 293 320 42 28 307 115 74 2 6 36 15 332 56 111 142 161 134 129 139 169 168 181 256 269 284 263 220 41 146 155 148 145 143 144 152 156 159 165 167 168 169 166 168 179 191 201 205 208 213 212 207 204 203 203 203 203 202 203 202 201 203 204 201 195 191 189 185 181 179 179 179 182 185 187 186 184 185 188 195 206 213 198 167
359 130 194 287 333 94 182 214 103 90 80 62 67 76 244 162 126 125 246 283 105 128 160 157 177 258 281 322 358 65 35 318 197 144 130 119 114 123 139 145 150 152 153 163 174 181 185 184 187 201 215 222 214 205 204 202 202 206 206 202 202 202 202 207 207 200 195 191 186 179 172 169 171 174 178 184 188 189 189 190 194 200 209 212 191 167
177 105 115 266 252 185 175 139 102 96 91 76 50 351 13 97 110 127 189 240 90 97 119 115 124 259 289 343 46 69 47 349 313 142 116 103 100 105 114 123 133 144 151 162 175 184 187 183 177 184 203 206 193 189 197 201 201 206 208 201 196 199 205 208 202 193 191 188 180 172 166 163 166 173 180 187 192 193 192 196 199 202 209 209 184 166
17 73 45 298 294 308 287 103 83 74 71 64 18 351 19 359 205 155 171 178 143 142 123 87 109 239 285 345 70 87 74 30 339 8 108 101 96 98 103 110 115 124 139 152 161 167 170 169 169 178 187 195 190 184 191 199 199 200 212 212 196 203 214 213 201 198 198 188 174 165 161 162 167 173 183 194 199 197 194 198 203 203 208 210 185 168
344 50 48 48 18 347 316 322 46 54 67 74 328 339 11 8 4 116 125 84 114 197 149 127 160 234 274 9 84 93 92 74 6 16 97 100 95 93 98 106 109 118 130 135 134 141 152 160 164 170 190 216 205 191 191 202 205 203 217 280 173 202 221 220 210 215 219 213 197 178 170 174 177 175 182 195 201 199 197 201 207 206 209 208 184 169
134 174 100 98 130 175 215 222 208 111 93 86 344 360 19 19 18 25 108 82 84 266 84 105 159 158 94 97 112 111 102 94 56 45 85 98 102 101 102 104 108 115 124 126 125 128 133 141 149 154 173 190 174 169 182 181 179 191 204 344 109 193 219 218 214 217 216 213 205 193 187 191 188 181 185 193 193 192 197 203 209 211 212 205 185 175
100 103 83 120 161 181 196 209 209 135 103 107 59 29 25 19 28 56 87 86 142 112 43 63 140 127 112 102 109 110 101 97 86 82 94 100 108 110 106 105 107 112 118 119 117 120 124 125 129 141 148 143 129 125 133 130 122 137 140 155 181 174 183 201 213 219 213 207 199 191 186 185 185 187 192 194 190 190 198 204 208 209 204 194 184 184
90 36 2 14 343 277 226 193 155 106 110 127 115 66 45 38 43 56 49 327 151 116 74 149 136 125 132 127 115 120 118 112 120 124 111 104 106 108 106 105 107 112 117 116 112 116 124 124 125 133 136 130 126 121 112 107 104 107 120 151 177 174 175 189 204 209 210 214 211 198 183 180 189 199 201 200 197 195 197 203 208 207 198 189 184 187
106 40 334 1 6 341 331 54 95 100 101 98 105 98 82 75 73 74 43 328 127 123 141 147 126 109 117 121 116 127 126 114 111 110 107 105 105 106 103 100 101 106 112 114 112 112 116 119 118 119 121 119 118 114 106 103 102 102 110 130 154 170 177 180 188 189 190 205 209 200 186 186 197 205 205 203 202 200 200 202 206 201 194 192 188 187
106 74 335 26 43 10 5 357 23 101 96 72 62 54 60 85 93 90 79 71 74 75 100 117 103 80 48 52 85 97 101 103 100 99 100 102 104 104 100 96 94 98 103 107 110 109 108 110 112 112 114 114 114 112 109 108 111 112 108 107 125 146 148 147 159 176 185 190 186 185 185 187 197 204 204 202 202 204 206 205 206 203 195 194 195 193
42 81 335 42 60 17 13 353 346 98 96 73 46 21 12 55 87 90 97 98 81 66 79 94 89 66 9 9 60 83 94 96 91 88 90 94 99 100 97 93 93 94 96 99 101 102 102 102 104 107 109 109 112 114 112 110 112 113 108 103 109 116 116 122 136 147 162 172 170 171 175 178 189 198 202 204 205 207 208 207 209 209 198 195 200 203
26 54 352 54 64 355 4 343 318 95 89 65 35 8 348 2 91 102 118 123 118 118 114 97 89 93 356 16 57 64 74 80 76 76 82 84 90 95 93 91 92 94 95 95 97 99 99 97 97 99 102 106 111 111 111 113 111 108 108 107 108 109 109 113 119 123 129 144 159 170 173 176 186 196 203 208 209 208 208 209 214 214 205 201 208 216
122 113 68 69 93 319 329 316 295 47 65 44 16 348 321 294 119 90 56 60 101 130 138 140 136 102 37 52 68 58 57 62 60 67 81 84 85 88 90 91 93 95 95 94 95 96 96 95 94 96 98 102 105 105 108 115 110 102 104 107 108 108 107 104 107 111 113 117 129 145 158 169 182 195 205 210 211 212 214 217 219 217 210 206 209 218
115 123 127 106 120 191 304 321 350 49 58 51 354 336 317 301 92 85 68 44 52 91 114 121 113 90 67 68 81 78 73 72 72 78 89 92 90 89 90 91 92 95 96 94 94 93 93 93 92 93 95 97 99 102 106 109 106 102 103 105 104 104 104 103 103 104 106 109 113 118 129 139 143 150 164 179 191 202 212 218 220 219 219 221 221 222
99 107 116 99 111 152 325 7 49 77 115 183 356 357 5 30 70 81 70 45 64 96 101 100 102 106 107 105 103 101 95 90 87 87 89 91 92 92 92 91 89 91 93 94 95 92 91 92 92 92 93 93 97 104 107 108 109 108 107 106 104 104 103 103 102 100 100 102 103 104 111 121 126 127 128 131 140 151 166 188 205 214 223 233 235 234
127 120 110 104 110 123 79 59 99 169 273 326 356 5 22 26 37 61 59 30 30 85 106 107 108 116 120 118 113 108 102 95 88 81 84 89 90 90 90 89 89 88 88 92 96 96 93 92 91 92 94 96 98 103 106 110 114 114 112 110 109 108 107 107 106 104 102 100 98 97 99 105 112 116 119 124 131 139 144 150 166 187 205 224 239 243
114 119 102 95 99 113 106 80 85 101 325 346 357 356 17 345 303 49 84 38 7 46 116 121 122 128 126 123 123 117 106 95 82 71 82 91 91 91 88 85 84 86 87 91 99 104 100 94 90 91 97 104 104 99 99 107 116 119 119 118 116 114 116 116 112 110 110 107 104 103 104 108 111 112 115 121 130 138 144 153 165 183 206 222 234 238
64 100 128 122 75 83 106 96 83 136 209 263 282 291 298 263 246 207 106 46 20 117 141 134 130 138 137 135 139 131 109 91 77 74 100 103 103 102 97 90 88 87 88 92 97 104 104 98 94 92 95 105 102 92 90 99 112 120 119 117 116 117 120 121 116 115 119 119 116 115 117 124 131 131 130 134 144 156 167 181 192 203 211 217 223 227
43 45 88 98 67 59 99 109 123 174 203 248 264 281 308 288 263 189 87 355 175 150 152 143 138 148 151 151 156 154 120 92 111 161 132 120 111 105 101 98 96 94 94 94 95 99 100 100 101 102 104 105 93 81 80 91 107 120 115 108 110 112 109 109 110 116 126 132 138 147 156 163 172 178 176 176 180 184 189 196 205 214 219 223 230 234
29 24 43 67 72 73 87 99 105 136 240 263 272 293 315 312 293 136 125 249 169 159 165 156 148 155 161 161 164 170 125 130 146 147 134 122 111 107 105 102 102 100 99 96 90 91 97 103 111 114 110 99 83 70 66 68 87 111 101 90 94 87 51 50 19 302 263 251 233 224 226 228 230 233 233 231 229 227 226 225 227 230 233 236 240 242
21 20 45 72 73 64 83 106 104 240 268 298 305 310 322 330 341 162 223 214 155 156 167 162 155 159 165 162 146 106 107 124 129 129 124 116 109 107 105 102 106 108 104 99 90 84 94 102 111 113 103 91 82 73 56 26 15 53 55 34 9 355 344 326 305 288 276 271 263 254 251 250 250 250 250 250 249 248 247 245 245 245 246 246 247 247
11 6 22 55 32 33 90 93 66 183 336 333 319 321 355 36 192 205 189 150 146 151 158 159 162 166 151 127 118 117 122 128 128 127 125 121 117 115 117 120 121 119 117 113 99 77 81 89 95 100 97 89 80 74 36 308 306 329 333 315 324 335 316 298 289 284 280 278 276 271 267 264 261 259 258 256 254 254 252 251 250 251 252 253 253 254
69 57 34 28 18 40 75 52 63 193 331 340 328 323 15 41 173 128 95 107 126 133 134 135 145 149 136 124 121 126 131 133 133 133 132 131 129 127 129 131 128 125 125 121 104 84 75 75 80 81 77 70 56 28 332 295 296 302 294 288 297 298 290 288 288 287 286 286 285 285 284 279 275 271 267 264 262 261 259 256 255 254 253 254 255 255
7 69 133 274 342 71 98 50 75 223 338 5 30 81 51 86 131 120 103 97 103 111 114 113 118 130 133 129 126 128 130 131 134 137 136 135 137 136 132 129 127 130 133 126 114 108 101 93 89 82 73 61 43 15 351 342 337 332 326 329 325 308 298 297 296 294 294 293 291 292 290 287 284 281 278 275 271 269 268 265 263 260 258 256 255 255
9 108 109 88 35 67 99 121 130 92 49 54 70 84 88 102 118 119 111 103 100 106 111 111 112 120 127 128 126 125 126 128 132 135 135 133 135 139 135 120 117 128 139 139 133 132 129 116 102 93 90 81 62 52 43 27 18 12 5 355 341 324 312 306 301 298 297 295 295 296 295 293 292 289 286 284 281 278 276 274 270 268 265 262 259 258
109 109 98 91 94 78 78 97 108 84 74 75 81 87 93 101 109 113 111 105 102 107 112 112 114 117 120 123 122 118 118 121 122 122 124 122 120 121 114 105 109 128 141 137 126 117 107 100 89 83 87 85 71 58 46 33 30 28 21 10 356 345 335 323 311 303 300 299 300 300 298 296 296 294 292 291 289 286 284 280 277 275 272 269 266 263
26 78 78 90 122 92 78 106 114 97 93 93 93 94 96 99 103 106 106 104 106 111 113 114 116 117 119 120 116 110 109 113 112 111 113 111 108 107 102 101 112 129 132 115 103 91 59 47 59 72 80 78 61 41 27 26 30 29 22 12 1 352 347 339 326 312 304 302 301 301 303 307 308 307 307 305 301 296 291 285 281 277 275 273 271 267
28 79 84 77 61 68 105 138 125 111 109 110 109 108 108 108 107 106 105 108 112 114 116 120 125 128 129 127 124 120 116 113 114 118 120 116 108 101 92 91 105 115 104 85 77 37 9 13 46 72 78 68 44 26 21 28 32 26 17 8 359 353 349 345 338 327 318 314 313 313 316 319 320 318 315 311 309 307 304 297 289 282 277 274 274 272
76 91 86 99 96 77 90 124 118 99 93 110 119 119 118 117 115 110 109 113 117 119 120 124 129 135 136 136 138 138 132 128 130 133 132 127 119 111 108 119 126 105 87 80 38 3 8 53 97 90 86 65 34 28 32 32 27 19 11 5 359 356 352 348 344 339 331 323 318 316 316 317 317 316 313 311 310 309 307 304 300 294 286 279 276 275
73 106 85 103 121 133 167 158 142 112 110 136 132 128 127 124 122 121 125 129 131 131 132 130 130 133 136 139 142 136 131 133 140 142 140 138 136 134 149 173 176 167 149 143 25 28 45 78 92 85 78 57 44 43 37 25 17 10 4 0 358 1 3 358 353 348 340 336 332 326 324 322 320 319 317 315 313 309 306 304 300 294 288 281 274 271
76 172 165 129 146 184 173 166 154 134 143 152 143 137 135 128 123 125 128 129 130 133 138 137 136 136 137 142 145 137 130 132 140 144 144 144 146 142 140 160 176 180 180 201 188 93 75 80 84 72 62 61 60 47 23 10 3 359 358 355 354 1 7 4 358 356 352 351 350 344 339 336 333 330 327 324 321 320 318 316 310 298 286 280 278 275